Bismarck, ND (58501)

7:36 PM CST on February 22, 2017 (GMT -0600)
Apple Meadows | | Change Station

Elev 1732 ft 46.81 °N, 100.67 °W | Updated 29 seconds ago

Overcast
Overcast
31.6 °F
Feels Like 26 °F
N
6.0
Wind Variable Wind from NNW

Today
High -- | Low -- °F
--% Chance of Precip.
Yesterday
High -- | Low -- °F
Precip. -- in
Pressure 30.01 in
Visibility 10.0 miles
Clouds Overcast 1900 ft
Windchill 26 °F
Dew Point 26 °F
Humidity 81%
Rainfall 0.38 in
Snow Depth Not available.
7:34 AM 6:18 PM
Waning Crescent, 14% visible
METAR KBIS 230052Z 35004KT 10SM OVC019 01/M01 A2996 RMK AO2 SLP162 T00111011
Pressure 30.01 in
Visibility 10.0 miles
Clouds Overcast 1900 ft
Windchill 26 °F
Dew Point 26 °F
Humidity 81%
Rainfall 0.38 in
Snow Depth Not available.
7:34 AM 6:18 PM
Waning Crescent, 14% visible
METAR KBIS 230052Z 35004KT 10SM OVC019 01/M01 A2996 RMK AO2 SLP162 T00111011

Get Your Daily Forecast Email!

Thanks for signing up!

Be on the lookout for a verification email in your inbox.

You'll start receiving the daily forecast at 8 AM.

×

10-Day Weather Forecast

Almanac

Astronomy

Feb. 22, 2017 Rise Set
Actual Time
Civil Twilight
Nautical Twilight
Astronomical Twilight
Moon
Length of Visible Light
Length of Day
Tomorrow will be .
, % of the Moon is Illuminated

Today's Extremes

State Highs State Lows

Community

WunderPhotos

Upload Photos

1,962,540 photos uploaded!

WunderBlog® & News

Nearby

Air Quality

  Air Quality AQ Index Pollutant
Not available.

Snow Depth

Station Depth Elevation

Earthquake Activity

City Distance Mag. Time & Date
Minimum magnitude displayed is 2.5.

Coastal Water Temperatures

Place Temperature

Stations

Nearby Weather Stations

Station Location Temp. Windchill Dew Point Humidity Wind Precip. Elev Updated Type
                   

Watches & Warnings

There are currently no watches in effect.